Location: Newark
(47.4833°N, 7.5167°E)
Time: 10:42:59
(UTC+00:00)

N. Korean satellite - Pass Details

Date: 23 October 2019
Orbit: 456 x 506 km, 97.2° (Epoch: 18 November)

Event Time Altitude Azimuth Distance (km) Brightness Sun altitude
Rises 17:16:11 0° 196° (SSW) 2,466 10.5 -8.8°
Reaches altitude 10° 17:18:29 10° 211° (SSW) 1,602 9.8 -9.1°
Maximum altitude 17:21:17 23° 266° (W) 1,026 9.3 -9.6°
Drops below altitude 10° 17:24:08 10° 321° (NW) 1,628 9.7 -10.1°
Sets 17:26:31 0° 336° (NNW) 2,519 10.5 -10.5°
